Regional Weather Roundup
Issued by NWS Goodland, KS

Home | Current Version | Previous Version | Graphics & Text | Print | Product List | Glossary On
Versions: 1 2 3 4 5 6 7 8 9 10 11 12 13 14 15 16 17 18 19 20 21 22 23 24 25 26 27 28 29 30 31 32 33 34 35 36 37 38 39 40 41 42 43 44 45 46 47 48 49 50
000
ASUS43 KGLD 200908
RWRGLD

GOODLAND FORECAST AREA HOURLY WEATHER ROUNDUP
NATIONAL WEATHER SERVICE GOODLAND KS
300 AM MDT WED AUG 20 2014

...OFFICIAL OBSERVATIONS...

CITY           SKY/WX    TMP DP  RH WIND       PRES   REMARKS
GOODLAND KS    CLOUDY    74  59  59 S13       29.84S
HILL CITY KS   PTCLDY    74  62  66 S6        29.80S
IMPERIAL NEB   CLOUDY    67  62  84 E7        29.79F
MCCOOK NEB     CLOUDY    74  62  66 SE6       29.79S
AKRON CO       CLOUDY    65  59  81 MISG      29.86F
BURLINGTON CO  MOCLDY    73  57  57 S12       29.85S
LIMON CO       MOCLDY    62  49  62 CALM      29.91F
$$

...UNOFFICIAL OBSERVATIONS...

CITY           SKY/WX    TMP DP  RH WIND       PRES   REMARKS
COLBY KS       CLEAR     75  64  69 S9        29.83F
LENORA KS        N/A     73  32  22 CALM        N/A
NORTON KS      CLEAR     73  61  64 S8        29.79
SHARON SPRINGS   N/A     75  62  63 S12         N/A
WAKEENEY KS      N/A     75  58  57 MISG        N/A
KIT CARSON CO    N/A     71  56  59 MISG        N/A
YUMA CO          N/A     66  61  85 CALM        N/A
$$



USA.gov is the U.S. government's official web portal to all federal, state and local government web resources and services.